Mount Carmel, IL

8:46 PM CST on December 13, 2019 (GMT -0600)
Mount Carmel Municipal

Weather History for KAJG - October, 2019

Change the Weather History Date:

Monday, October 21, 2019

  Actual Average (WUND) Record (WUND)
Temperature  
Mean Temperature 60 °F -  
Max Temperature 66 °F - - (-1)
Min Temperature 54 °F - - (-1)
Degree Days  
Heating Degree Days 5    
Growing Degree Days 10 (Base 50)    
Moisture  
Dew Point 57 °F    
Average Humidity 84    
Maximum Humidity 96    
Minimum Humidity 73    
Precipitation  
Precipitation 0.74 in - - ()
Sea Level Pressure  
Sea Level Pressure 29.69 in    
Wind  
Wind Speed 12 mph (South)    
Max Wind Speed 22 mph    
Max Gust Speed 30 mph    
Visibility 10 miles    
Events Rain , Thunderstorm    
Averages and records for this station are not official NWS values.
T = Trace of Precipitation, MM = Missing Value Source: NWS Daily Summary

Daily Weather History Graph

Daily Weather History Graph

Search for Another Location

Airport or City:

Astronomy

Oct. 21, 2019 Rise Set
Actual Time 7:05 AM CDT 6:04 PM CDT
Civil Twilight 6:38 AM CDT 6:31 PM CDT
Nautical Twilight 6:07 AM CDT 7:02 PM CDT
Astronomical Twilight 5:37 AM CDT 7:33 PM CDT
Moon No Moon Rise 2:21 PM CDT (10/21)
Length of Visible Light 11h 52m
Length of Day
10h 58m
Waning Gibbous, 48% of the Moon is Illuminated
Oct 21
Waning Gibbous
Oct 27
New
Nov 4
First Quarter
Nov 12
Full
Nov 19
Last Quarter

Hourly Weather History & Observations

Time (CDT) Temp. Dew Point Humidity Pressure Visibility Wind Dir Wind Speed Gust Speed Precip Events Conditions
12:15 AM 56.7 °F 51.3 °F 82% 29.84 in 10.0 mi North - - N/A   Overcast
12:35 AM 56.1 °F 51.4 °F 84% 29.81 in 10.0 mi ESE 9.2 mph - N/A   Scattered Clouds
12:55 AM 57.2 °F 52.0 °F 83% 29.80 in 10.0 mi ESE 8.1 mph - N/A   Clear
1:15 AM 56.8 °F 51.8 °F 83% 29.80 in 10.0 mi ESE 6.9 mph - N/A   Scattered Clouds
1:35 AM 58.3 °F 53.1 °F 83% 29.80 in 10.0 mi SE 8.1 mph - N/A   Overcast
1:55 AM 59.4 °F 53.4 °F 81% 29.79 in 10.0 mi SE 10.4 mph - N/A   Mostly Cloudy
2:15 AM 60.1 °F 54.0 °F 80% 29.79 in 10.0 mi SE 10.4 mph - N/A   Mostly Cloudy
2:35 AM 59.9 °F 54.0 °F 81% 29.78 in 10.0 mi SE 11.5 mph - N/A   Scattered Clouds
2:55 AM 59.9 °F 54.3 °F 82% 29.78 in 10.0 mi SE 10.4 mph - N/A   Mostly Cloudy
3:15 AM 59.9 °F 54.5 °F 82% 29.75 in 10.0 mi ESE 10.4 mph - N/A   Scattered Clouds
3:35 AM 59.9 °F 54.5 °F 82% 29.74 in 10.0 mi ESE 11.5 mph - N/A   Scattered Clouds
3:55 AM 60.1 °F 54.5 °F 82% 29.74 in 10.0 mi SE 11.5 mph - N/A   Scattered Clouds
4:15 AM 60.4 °F 54.7 °F 81% 29.73 in 10.0 mi ESE 12.7 mph - N/A   Scattered Clouds
4:35 AM 60.4 °F 54.9 °F 82% 29.71 in 10.0 mi ESE 10.4 mph - N/A   Scattered Clouds
4:55 AM 60.4 °F 54.9 °F 82% 29.68 in 10.0 mi ESE 11.5 mph - N/A   Scattered Clouds
5:15 AM 60.8 °F 55.0 °F 81% 29.66 in 10.0 mi ESE 12.7 mph - N/A   Mostly Cloudy
5:35 AM 61.7 °F 55.4 °F 80% 29.66 in 10.0 mi ESE 12.7 mph - N/A Thunderstorm Mostly Cloudy
5:55 AM 61.9 °F 55.8 °F 80% 29.64 in 10.0 mi SE 17.3 mph - N/A Rain , Thunderstorm Light Thunderstorms and Rain
6:15 AM 60.8 °F 56.5 °F 86% 29.64 in 7.0 mi SE 15.0 mph 26.5 mph 0.07 in Rain , Thunderstorm Thunderstorms and Rain
6:35 AM 60.3 °F 57.9 °F 92% 29.66 in 2.5 mi SSE 8.1 mph - 0.26 in Rain , Thunderstorm Heavy Thunderstorms and Rain
6:55 AM 60.4 °F 58.3 °F 93% 29.71 in 10.0 mi WSW 11.5 mph - 0.36 in   Overcast
7:15 AM 60.1 °F 58.5 °F 94% 29.69 in 3.0 mi SSE 8.1 mph - 0.06 in Rain Heavy Rain
7:35 AM 60.8 °F 59.0 °F 94% 29.68 in 10.0 mi South 11.5 mph - 0.13 in Rain Light Rain
7:55 AM 61.3 °F 59.2 °F 93% 29.68 in 10.0 mi SSE 10.4 mph - 0.19 in Rain Light Rain
8:15 AM 61.7 °F 59.4 °F 92% 29.67 in 10.0 mi SSE 6.9 mph - 0.03 in Rain Light Rain
8:35 AM 61.7 °F 59.9 °F 94% 29.67 in 10.0 mi SE 9.2 mph - 0.06 in   Overcast
8:55 AM 61.3 °F 59.9 °F 95% 29.67 in 10.0 mi SSE 9.2 mph - 0.08 in Rain Light Rain
9:15 AM 61.7 °F 60.1 °F 94% 29.66 in 10.0 mi SSE 9.2 mph - 0.01 in Rain Rain
9:35 AM 61.7 °F 60.3 °F 95% 29.66 in 10.0 mi SSE 13.8 mph - 0.03 in Rain Light Rain
9:55 AM 62.1 °F 60.8 °F 96% 29.66 in 5.0 mi SSE 16.1 mph 19.6 mph 0.05 in Rain Light Rain
10:15 AM 62.6 °F 60.8 °F 94% 29.63 in 10.0 mi SSE 15.0 mph - 0.02 in Rain Light Rain
10:35 AM 62.6 °F 61.0 °F 94% 29.58 in 10.0 mi SE 19.6 mph - 0.04 in Rain Light Rain
10:55 AM 63.5 °F 61.5 °F 93% 29.58 in 10.0 mi SSE 18.4 mph 26.5 mph 0.05 in   Overcast
11:15 AM 63.9 °F 61.0 °F 90% 29.62 in 10.0 mi South 17.3 mph 21.9 mph N/A   Mostly Cloudy
11:35 AM 64.4 °F 61.0 °F 89% 29.62 in 10.0 mi SSE 17.3 mph 21.9 mph 0.01 in   Scattered Clouds
11:55 AM 64.4 °F 61.0 °F 89% 29.55 in 10.0 mi SE 16.1 mph 27.6 mph 0.01 in Rain Light Rain
12:15 PM 65.3 °F 60.4 °F 84% 29.63 in 10.0 mi SSW 16.1 mph 26.5 mph N/A   Overcast
12:35 PM 65.3 °F 60.8 °F 85% 29.65 in 10.0 mi SW 11.5 mph 18.4 mph N/A   Overcast
12:55 PM 65.3 °F 60.6 °F 85% 29.64 in 10.0 mi SSW 15.0 mph 19.6 mph N/A   Overcast
1:15 PM 65.3 °F 60.1 °F 83% 29.64 in 10.0 mi SSW 15.0 mph - N/A   Mostly Cloudy
1:35 PM 65.3 °F 59.9 °F 83% 29.64 in 10.0 mi SSW 16.1 mph 21.9 mph N/A   Mostly Cloudy
1:55 PM 65.5 °F 59.4 °F 81% 29.62 in 10.0 mi SSW 20.7 mph 25.3 mph N/A   Mostly Cloudy
2:15 PM 66.2 °F 58.6 °F 77% 29.62 in 10.0 mi SSW 20.7 mph 29.9 mph N/A   Overcast
2:35 PM 66.2 °F 58.3 °F 76% 29.61 in 10.0 mi SSW 19.6 mph 28.8 mph N/A   Overcast
2:55 PM 66.6 °F 58.3 °F 75% 29.62 in 10.0 mi SSW 20.7 mph 27.6 mph N/A   Mostly Cloudy
3:15 PM 66.6 °F 58.5 °F 75% 29.62 in 10.0 mi SSW 19.6 mph 26.5 mph N/A   Mostly Cloudy
3:35 PM 66.7 °F 59.0 °F 76% 29.62 in 10.0 mi SSW 19.6 mph 26.5 mph N/A   Mostly Cloudy
3:55 PM 66.2 °F 59.2 °F 78% 29.62 in 10.0 mi SSW 21.9 mph 27.6 mph N/A   Mostly Cloudy
4:15 PM 65.7 °F 59.2 °F 80% 29.63 in 10.0 mi SSW 15.0 mph 23.0 mph N/A   Mostly Cloudy
4:35 PM 66.0 °F 58.6 °F 77% 29.63 in 10.0 mi SSW 18.4 mph 24.2 mph N/A   Overcast
4:55 PM 65.7 °F 58.5 °F 78% 29.63 in 10.0 mi SSW 19.6 mph 26.5 mph N/A   Overcast
5:15 PM 65.3 °F 58.5 °F 78% 29.64 in 10.0 mi SSW 15.0 mph 23.0 mph N/A   Overcast
5:35 PM 65.3 °F 58.3 °F 78% 29.64 in 10.0 mi SSW 19.6 mph 24.2 mph N/A   Overcast
5:55 PM 64.9 °F 57.9 °F 78% 29.66 in 10.0 mi SSW 18.4 mph 24.2 mph N/A   Overcast
6:15 PM 64.4 °F 57.4 °F 78% 29.67 in 10.0 mi SSW 20.7 mph 24.2 mph N/A   Overcast
6:35 PM 63.9 °F 56.5 °F 77% 29.68 in 10.0 mi SSW 18.4 mph 23.0 mph N/A   Mostly Cloudy
6:55 PM 63.1 °F 56.3 °F 78% 29.69 in 10.0 mi SSW 11.5 mph - N/A   Scattered Clouds
7:15 PM 62.6 °F 56.3 °F 80% 29.69 in 10.0 mi SSW 12.7 mph - N/A   Scattered Clouds
7:35 PM 62.6 °F 56.3 °F 80% 29.70 in 10.0 mi SSW 13.8 mph 18.4 mph N/A   Scattered Clouds
7:55 PM 62.2 °F 56.1 °F 80% 29.70 in 10.0 mi SSW 15.0 mph - N/A   Clear
8:15 PM 61.9 °F 56.3 °F 82% 29.71 in 10.0 mi SSW 12.7 mph - N/A   Clear
8:35 PM 61.7 °F 56.3 °F 82% 29.71 in 10.0 mi SSW 13.8 mph - N/A   Scattered Clouds
8:55 PM 61.2 °F 56.3 °F 84% 29.72 in 10.0 mi SW 10.4 mph - N/A   Mostly Cloudy
9:15 PM 60.1 °F 55.8 °F 86% 29.73 in 10.0 mi SW 10.4 mph - N/A   Scattered Clouds
9:35 PM 59.9 °F 56.1 °F 87% 29.74 in 10.0 mi SW 11.5 mph - N/A   Scattered Clouds
9:55 PM 58.5 °F 55.4 °F 90% 29.77 in 10.0 mi West 9.2 mph - N/A   Clear
10:15 PM 57.9 °F 53.2 °F 84% 29.79 in 10.0 mi West 9.2 mph - N/A   Clear
10:35 PM 55.9 °F 50.5 °F 82% 29.79 in 10.0 mi West 8.1 mph - N/A   Clear
10:55 PM 54.7 °F 47.8 °F 78% 29.79 in 10.0 mi SW 6.9 mph - N/A   Mostly Cloudy
11:15 PM 54.5 °F 47.1 °F 76% 29.79 in 10.0 mi SSW 6.9 mph - N/A   Mostly Cloudy
11:35 PM 54.0 °F 47.1 °F 78% 29.80 in 10.0 mi SSW 9.2 mph - N/A   Scattered Clouds
11:55 PM 54.5 °F 45.9 °F 73% 29.79 in 10.0 mi South 9.2 mph - N/A   Clear